Race Results for
Snowmass Norba National-NMBS #7
Snowmass, CO
(Event Information)
Super D on 08/12/2006

Note: Ranking points are NOT upgrade points. An explanation of ranking points can be found here.


Men - Cat 1/2/3 - Senior

 Place Points NameCity, StateTime USAC #BibTeam
1CHRIS MATHIS   13:14.78  2470 
2BRETT BATCHELDER   13:37.15  2602 GARY FISHE
3CHRIS JUST   14:09.84  2600 MICHELIN
4MARK MABON   14:12.61  2585 
5ZEPH WADSWORTH   14:56.51  2584 LUNA
6TROY LAFFEY   15:01.74  884 
7Suzanne Peters   Elk Grove, CA17:14.87 207899  2492 VELO BELLA
8JED PETERS   21:22.51  2487 VELO BELLA
DNFCHAD DEWITT   DNF  2586 
DNFALEX BURGESS   DNF  2486 VELO BELLA
DNFJohn Valera   San Jose, CADNF 226957  2251 SANTA CRUZ

Men - Cat 1/2/3 - Senior - 19-29

 Place Points NameCity, StateTime USAC #BibTeam
1Trevor Downing   Durango, CO12:26.97 161859  215 BV BIKES/S
2MATHEW BARLOW   12:39.80  2552 
3Chad Cheeney   Durango, CO12:53.61 104313  2407 DURANGO DE
4Dan Sypniewski   Rochester Hills, MI12:58.03 229149  2232 KONA MIDWE
5Jason Wenk   North Mankato, MN13:04.02 238817  2354 
6Daniel Smith   Fayetteville, AR13:48.05 176262  2488 HIGHROLLER
7Blake O'Donnell   Colorado Springs, CO13:54.83 172936  234 
8MICHEL DAHL   14:13.50  2551 
9STEPHEN SMITH   14:16.08  2555 
10Miguel Ramos   Lake Elsinore, CA14:18.15 182950  2422 TEAM AK
11Jeffery McCullough   Grand Junction, CO14:53.90 214313  2389 RUBY CANYO
12Andrew Ramsay   Waterville, ME15:53.54 180173  1911 NORTHEASTE
13Stephane Roch   San Diego, CA15:58.47 199861  2043 BIKE EMPIR
14Andrew Farrell   Boston , MA18:00.72 243528  2274 
DNFMason Klebold   Grand Junction, CODNF 180862  355 RUBY CANYO
DNFMARK STOVER   DNF  2310 NINE 7 ZER
DNFJustin Rinehart   Mankato, MNDNF 149501  2355 BEAR NAKED
DNFRICKY WATTS   DNF  2388 
DNFRyan Blaney   Pleasant Grove, UTDNF 117219  2450 SMITH/BIKE
DNFBrett Vaughan   Austin, TXDNF 157832  2465 DOVE CREEK
DNFSteve Ladd   Fort Collins, CODNF 166316  2491 COLORADO S
DNFRobert Herber   Murrieta, CADNF 153464  204 KHS/IE BIK

Men - Cat 1/2/3 - Master - 30-39

 Place Points NameCity, StateTime USAC #BibTeam
1Michael Pastore   Avon, CO12:38.70 85683  2501 MOUNTAIN P
2Adam Lavender   Carbondale, CO13:00.44 211131  2582 THE FIX SM
3Derek Eilers   Denver, CO13:11.43 137502  2560 
4Jason Beckley   Clifton Heights, PA14:00.42 3122  350 9.8/SINIST
5Chris Sherwin   Heber, UT14:15.50 190208  2566 REVOLUTION
6Clay Watson   Boulder, CO14:43.99 236865  2038 THE FIX/TR
7ROBERT MESSICK   16:40.79  2334 
DNFTom Torrance   Boulder, CODNF 173912  2489 CUP A CHIN
DNFMatthew Duke   Litchfield Park, AZDNF 194520  1935 INTENSE TI
DNFJESSE VOZA   DNF  2349 TRI SPORT
DNFMICAHEL RICE   DNF  2437 

Men - Cat 1/2/3 - Master - 40-49

 Place Points NameCity, StateTime USAC #BibTeam
1Bill Scott   Orange, CA13:24.63 226977  2500 
2Timothy Barnes   Boulder, CO13:47.00 96071  2135 SCOTT USA
3Alex Wheeler   San Jose, CA14:44.22 115171  2468 BCIC/X-FUS
DNFDon Jackson   Riverside, CADNF 17510  2118 ODI/SOUTHR
DNFKeith Darner   Golden, CODNF 8663  2269 RPM/YETI

Men - Cat 1/2/3 - Master - 50-99

 Place Points NameCity, StateTime USAC #BibTeam
1Scott Lideen   Phoenix, AZ14:21.12 142637  1960 DP AIR/SAN
2PETE VOGT   18:02.50  2473 
3Unknown FRENCHY   19:24.06  2347 
4TOM STEVENS   21:03.43  2311 
5CHUCK HULETT   23:58.84  1927 BEAR VALLE
6James Van Manen   Ventura, CA25:04.68 36453  2308 BICYCLES O
DNFJoel Creed   Franklin, INDNF 146083  2089 GRAY GOATS
DNFDARRYL BANGERT   DNF  2583 

Men - Pro - Senior

 Place Points NameCity, StateTime USAC #BibTeam
1Ross Schnell   Grand Jct, CO10:54.82 99965  2454 TREK/VW
2Adam Craig   Bend, OR10:58.41 94510  2427 GIANT
3Mike West   Boulder, CO11:21.09 37786  2562 MAVERICK
4Carl Decker   Bend, OR11:24.32 9007  2428 GIANT
5Brian Laiho   Boulder, CO11:26.01 114793  2179 
6Matthew Kelly   Johnson Creek, WI11:34.83 116304  2234 SUBARU-GAR
7Ariel Lindsley   Aptos, CA11:43.36 134618  2578 MAVERICK
8WAYLON SMITH   12:05.91  2265 KHS
9Joshua Bezecny   Golden, CO12:11.86 114873  2475 TARGET TRA
10Paul Hanson   St Peter, MN12:12.64 118046  2353 
11Dustin Wanstrath   Durango, CO12:12.93 190121  254 TEAM TAMAR
12Barry Wicks   Corvallis, OR12:19.58 134223  2412 KONA/LES G
13Eric Ransom   Richmond, VA12:19.92 150928  2495 TAMARACK R
14Dana Weber   Aliso Viejo, CA12:20.35 126922  2505 JAX BICYCL
15Jesse Swift   Golden, CO12:23.60 100646  2200 
16Christopher Jung   Boulder, CO12:27.95 146247  2180 WALTWORKS/
17Olivier Bock   Hood River, OR12:30.97 81949  230 MOTIONBASE
18Michael Raney   Santa Fe, NM12:34.03 175669  205 NO ARIZONA
19KEITH HICKERSON   12:35.47  41 
20Chad Kittles   Arvada, CO12:37.75 80263  2178 YETI/DENVE
21Brent Winebarger   Colorado Springs, CO12:58.59 132038  2481 HEALTH FX/
22Justin Maka   Albuquerque, NM13:01.95 164982  2184 CPT/MAXXIS
23NICOLAS ENJALBERT   13:02.78  2134 
24MIKE DUCKWORTH   13:03.23  2137 
25Jeffrey Wu   Littleton, CO13:14.28 164941  2103 FUENTESDES
26PIERRE-YVES FACOMPREZ   13:47.03  2371 AS POURCHA
27Thomas Wehe   Durango, CO15:24.00 37548  2275 KENDA/TURN
28Alex Boday   Fort Collins, CO15:25.28 163689  2091 TOMAC/AZON
DNFBrian Buell   Jamestown, CODNF 218052  323 ROTEC CYCL
DNFKristopher Holden   Spokane, WADNF 148376  2497 VERTICAL E
DNFMiles Venzara   Durango, CODNF 138725  2478 TEAM HEALT
DNFRyan Lynch   Boulder, CODNF 164962  2476 JAMES FRAM
DNFNicholas Martin   Boulder, CODNF 140177  2455 TREK/VW
DNFShannon Boffeli   Salt Lake City, UTDNF 43484  2432 REVOLUTION
DNFRICKY FEDERAU   DNF  2430 TEAMRACE.C
DNFScott Lowry   Mount Sterling, OHDNF 155327  337 OD RACING/
DNFAndre Sanches   Trabuco Canyon, CADNF 194967  312 AVENT/BOMB
DNFBrandon Turman   Costa Mesa, CADNF 198744  307 MAXXIS/FOX
DNFTravis (TJ) Woodruff   Prescott, AZDNF 135975  2357 LITESPEED/
DNFMATTHEW HADLEY   DNF  2426 ROCKY MOUN
DNFNicholas Stevens   Boulder, CODNF 237516  2365 FUENTES DE
DNFBrett Stoeckelmann   Austin, TXDNF 134043  253 

Men - Junior - JR - 1-18

 Place Points NameCity, StateTime USAC #BibTeam
1Mitchell Hoke   Boulder, CO12:24.30 203760  2119 YETI CYCLE
2Art Nelsen   Boulder, CO12:47.86 211465  2111 TOKYO JOES
3John Purvis   Parthenon, AR12:54.80 200977  2340 KONA
4Danny O'Bryan   Woodland Hills, CA13:10.32 225352  2259 CYCOLOGY/U
5Naish Ulmer   Hood River, OR13:10.69 175253  2293 X-FUSION/M
6Gregory Carpenter   Durango, CO13:15.42 191158  1941 GIANT/DEVO
7Adam LaRochelle   Granby, CO13:43.44 232919  2214 MICHELIN T
8Jonathan Buckell   Pasadena, CA13:55.58 218074  2318 TNT RACING
9Chris Myers   Colorado Springs, CO13:59.92 225550  2299 BRODIE BIK
10Maxwell Wheeler   Nederland, CO14:26.54 219224  2479 FOX/CRANK
11Matthew Beaton   Colorado Springs, CO14:40.14 216119  2493 
12Jacob Bergeron   Colorado Springs, CO15:50.85 215410  2382 BERGERON
13Samuel Stevens   Carbondale, CO15:55.81 217240  2312 KONA/UTE C
14Alex Hulett   Big Bear Lake, CA16:00.40 137462  1928 BEAR VALLE
15JOSHUA KAST   17:26.63  1925 
16AUSTIN DEBOER   25:08.07  2535 
17JOEY SULLIVAN   28:20.19  2517 EASTERN EU
DNFJoseph Autry   Durango, CODNF 247019  2129 DEVO/DURAN
DNFBenjamin Kraushaar   Durango, CODNF 198737  2379 HEALTH FX/
DNFJose Garcia   Colorado Springs, CODNF 222073  2341 RPM/YETI
DNFTyler McCaul   Aptos, CADNF 178124  2314 TREK/FOX R
DNFMATT SWANGUEN   DNF  2057 
DNFBenjamin Hulse   Mooresville, NCDNF 211866  2266 
DNFSEPP KUSS   DNF  2117 
DNFGino Pastore   Durango, CODNF 230628  2061 
DNFKirk Turner   Bellingham, WADNF 192168  2040 GIANT
DNFPAUL STOVER   DNF  2307 NINE SEVEN
DNFTad Elliott   Durango, CODNF 230614  2123 DURANGO DE
DNFJohn Hauer   Santa Cruz, CADNF 205936  1929 WTB SPECIA

Women - Cat 1/2/3 - Senior - 19-29

 Place Points NameCity, StateTime USAC #BibTeam
1Amanda Pilling   Royal Oak, MI15:26.64 247847  2231 KONA MIDWE
2Janis Sandlin   Boulder, CO15:33.74 211344  2108 TOUGH GIRL
3Ashley Eyre   Boulder, CO15:42.22 214077  2570 MAVERICK
4Heidi Kanayan   Mammoth Lakes, CA15:46.40 214650  1926 STEVEN K S
5Anna Kelso   Takoma Park, MD17:29.07 189154  2482 GRETNA
6Lynn Bush   Arvada, CO22:00.63 217462  2474 TOUGH GIRL
DNFSabina Kraushaar   Durango, CODNF 198738  2378 FORT LEWIS
DNFSONYA BUGBEE   DNF  1964 ROCKY MTN

Women - Cat 1/2/3 - Master - 30-39

 Place Points NameCity, StateTime USAC #BibTeam
1MARIA PASTORE   16:03.20  2565 
2ELAYNA CALDWELL   18:32.12  2572 FOX RACING

Women - Cat 1/2/3 - Master - 40-99

 Place Points NameCity, StateTime USAC #BibTeam
1PEGGY HARRIS-FOSTER   16:04.60  2019 
2Alexandria Fabbro   Altadena, CA16:05.85 56090  2025 VELO BELLA
3Celia Graterol   Mill Valley, CA16:42.78 223612  2164 GARMIN MOT
4Vicki Koch   West Falls, NY22:57.80 200770  1984 TEAM CMI/S

Women - Pro - Senior

 Place Points NameCity, StateTime USAC #BibTeam
1Susan Haywood   Harrisonburg, VA13:01.94 117585  2331 TREK/VW
2Dara Marks-Marino   Flagstaff, AZ13:20.70 144461  2317 TITUS/KEND
3Jennifer Gersbach   Durango, CO13:29.05 191239  2461 TOKYO JOES
4Sara Bresnick-Zocchi   Arlington, MA13:47.90 166426  2433 FORD CYCLI
5Lorien Lightfield   Boise, ID13:53.06 98936  2440 TAMARACK
6Abigail Hippely   Santa Cruz, CA14:03.22 184801  2577 MAVERICK
7Alice Pennington   Portland, OR14:16.28 150685  2403 DESALVO
8Shari Hausbeck   Colorado Springs, CO14:39.45 100434  2542 ROCKSHOX
9Heather Svahn   Truckee, CA14:50.33 112034  2102 CONTENT WO
10SONYA LOONEY   14:57.09  2458 TITUS
11Ann Fitzsimmons   Gilroy, CA15:03.97 203793  2573 SCHWALBE T
12Jennifer Whalen   Evergreen, CO15:18.87 163615  2459 JENXRACER.
13Susan Grandjean   Portland, OR15:21.68 116807  2322 
14Kathy Bodie   Boulder, CO16:11.76 173449  2576 DAM RIDERS
15Anka Martin   Laguna Beach, CA16:21.20 172194  2581 HONDA IRON
16Rana Schnell   Grand Junction, CO18:17.27 176436  135 RUBY CANYO
DNFMegan Monroe   Boulder, CODNF 178944  2460 SPORTS GAR
DNFMarla Streb   Baltimore, MDDNF 34393  1904 LUNA CHIX/
DNFNeven Steinmetz   Boulder, CODNF 199716  2242 FULL TILT
DNFPaula Bock   Hood River, ORDNF 166928  2126 MOTIONBASE
DNFJoanna Petterson   Jericho, VTDNF 187041  2260 MOREWOOD B
DNFKaterina Nash   Truckee, CADNF 188603  2469 LUNA WOMEN
DNFJennifer Hanks   Salt Lake City, UTDNF 111202  2431 REVOLUTION
DNFKathy Sherwin   Heber City, UTDNF 173633  2434 FORD CYCLI
DNFMelanie Meyers   Flagstaff, AZDNF 196731  2438 FORD CYCLI
DNFChloe Forsman   Tucson, AZDNF 214920  2511 TOKYO JOES
DNFGretchen Reeves   Avon, CODNF 29423  2333 TREK/VW

Women - Junior - JR - 1-18

 Place Points NameCity, StateTime USAC #BibTeam
1Jill Behlen   Boulder, CO17:30.39 210228  2149 TOKYO JOES
2CAROLYNN GRIGSBY   18:57.90  2162 THE FIX
3Kristine Koch   East Aurora, NY22:55.26 203473  1985 TEAM CMI/S
DNFJames Cooper   Groveland, CADNF 218140  2289 MOREWOOD/6
DNFAliciaRose Pastore   Durango CoDNF 219217  2062 DURANGO CY

Report missing or incorrect license numbers

Volkswagen
USACDFSierra NevadaBonk BreakerSpyShimano
UCI USA Cycling is the official governing body for all disciplines of competitive cycling in the United States. The 501c3, membership-based organization aims both to achieve sustained success in international cycling competition and to grow competitive cycling in America while delivering an exceptional customer experience.
View Children's Online Privacy Protection Policy
US Olympic Committee